Flag for Brazil Weather past 2 weeks in Porto Velho, Rondônia, Brazil

Now
84 °F

Partly sunny.


Feels Like: 92 °F
Forecast: 73 / 82 °F
Wind: 6 mph from Northwest

Location: Porto Velho Aeroporto

Current Time: Jan 28, 2015 at 2:30:22 PM

Latest Report: Jan 28, 2015 at 2:00 PM


Visibility: N/A

Pressure: 29.80 "Hg

Humidity: 74%

Dew point: 75 °F

Location of Porto VelhoLocation

Historic Weather in Porto Velho — Graph

°F

Porto Velho temperature yesterday

Maximum temperature yesterday: 79 °F (at 11:00 AM)
Minimum temperature yesterday: 43 °F (at 4:00 PM)
Average temperature yesterday: 73 °F

Past Weeks' High & Low Weather Summary

 TemperatureHumidityPressure
High90 °F (Jan 20, 12:00 PM)100% (Jan 13, 4:00 PM)30.18 "Hg (Jan 13, 4:00 PM)
Low32 °F (Jan 26, 4:00 PM)52% (Jan 21, 3:00 PM)29.71 "Hg (Jan 26, 5:00 PM)
Average77 °F88%29.87 "Hg
* Reported Jan 13 1:00 PM — Jan 28 1:00 PM, Porto Velho, Weather by CustomWeather, © 2014

Note: Actual official high and low records may vary slightly from our data, if they occured in-between our weather recording intervals... More about our weather records

Advertising

Porto Velho weather history for previous 24 hours

 ConditionsComfort  
Time TempWeatherWind HumidityBarometerVisibility
1:00 PM
Jan 28
82 °FScattered clouds.No wind70%29.86 "HgN/A
12:00 PM82 °FPartly sunny.7 mph74%29.92 "HgN/A
11:00 AM81 °FPartly sunny.7 mph79%29.92 "HgN/A
10:00 AM79 °FPartly sunny.No wind79%29.92 "HgN/A
9:00 AM77 °FScattered clouds.7 mph83%29.92 "HgN/A
8:00 AM75 °FSunny.No wind89%29.89 "Hg10 mi
7:00 AM73 °FSunny.3 mph94%29.86 "Hg10 mi
6:00 AM73 °FClear.2 mph94%29.86 "Hg10 mi
5:00 AM73 °FPassing clouds.No wind94%29.83 "HgN/A
4:00 AM73 °FPassing clouds.2 mph94%29.83 "HgN/A
3:00 AM73 °FPassing clouds.No wind94%29.83 "HgN/A
2:00 AM73 °FPassing clouds.No wind94%29.83 "HgN/A
1:00 AM73 °FPassing clouds.2 mph94%29.86 "HgN/A
12:00 AM73 °FPassing clouds.2 mph94%29.89 "HgN/A
11:00 PM
Jan 27
73 °FPassing clouds.1 mph94%29.89 "HgN/A
10:00 PM73 °FPassing clouds.2 mph89%29.89 "HgN/A
9:00 PM72 °FPassing clouds.No wind94%29.86 "HgN/A
8:00 PM72 °FPassing clouds.No wind94%29.83 "HgN/A
7:00 PM73 °FPassing clouds.No wind94%29.80 "HgN/A
6:00 PM73 °FLight rain. Mostly cloudy.No wind89%29.80 "Hg3 mi
5:00 PM73 °FRain. Cloudy.10 mph89%29.80 "Hg2 mi
4:00 PM43 °FScattered showers. Broken clouds.7 mph100%29.80 "Hg5 mi
3:00 PM77 °FBroken clouds.7 mph89%29.80 "HgN/A
2:00 PM77 °FPartly sunny.5 mph94%29.80 "Hg5 mi
Weather by CustomWeather, © 2014

See weather overviewHow to use our weather pages